Location: Hamburg
(53.5511°N, 9.9937°E)
Time: 16:35:05
(UTC+02:00)

ISS - Pass Details

Date: 22 March 2026
Orbit: 416 x 425 km, 51.6° (Epoch: 19 April)

Event Time Altitude Azimuth Distance (km) Brightness Sun altitude
Rises 20:42:26 0° 279° (W) 2,389 1.4 -18.6°
Reaches altitude 10° 20:44:40 10° 269° (W) 1,519 -0.1 -18.9°
Maximum altitude 20:47:46 32° 204° (SSW) 746 -2.6 -19.3°
Enters shadow 20:47:51 32° 200° (SSW) 747 -2.6 -19.3°
